| time (UTC) | temp F | wind direction | speed knots | gust knots | rain 1hr in | rain 24hr in | rain mn in | humidity % | barometer mb |
| 20260504081543 | 38 | 220 | 6.1 | 20.0 | 0.01 | 0.72 | 0.07 | 89 | 978.2 |
| 20260504050020 | 39 | 194 | 6.1 | 17.4 | 0.02 | 0.67 | 0.02 | 89 | 975.0 |
| 20260504044517 | 39 | 138 | 6.1 | 20.9 | 0.02 | 0.66 | 0.02 | 89 | 975.9 |
| 20260504043017 | 39 | 151 | 4.3 | 22.6 | 0.01 | 0.65 | 0.01 | 89 | 976.9 |
| 20260504041513 | 39 | 148 | 6.1 | 21.7 | 0.00 | 0.65 | 0.00 | 88 | 977.8 |
| 20260504040010 | 40 | 173 | 7.8 | 17.4 | 0.00 | 0.65 | 0.00 | 88 | 978.2 |
| 20260504034507 | 40 | 188 | 6.1 | 23.5 | 0.01 | 0.65 | 0.00 | 87 | 978.9 |
| 20260504033007 | 40 | 155 | 8.7 | 18.2 | 0.01 | 0.65 | 0.00 | 87 | 979.4 |
| 20260504031503 | 41 | 263 | 7.8 | 20.9 | 0.01 | 0.65 | 0.00 | 86 | 980.2 |
| 20260504030058 | 41 | 190 | 7.0 | 17.4 | 0.01 | 0.65 | 0.65 | 87 | 980.8 |
| 20260504024614 | 41 | 149 | 7.0 | 19.1 | 0.00 | 0.64 | 0.64 | 88 | 981.6 |
| 20260504023054 | 42 | 151 | 4.3 | 13.0 | 0.00 | 0.64 | 0.64 | 88 | 982.1 |
| 20260504021552 | 42 | 177 | 5.2 | 21.7 | 0.00 | 0.64 | 0.64 | 89 | 983.1 |
| 20260504020049 | 43 | 210 | 7.8 | 18.2 | 0.01 | 0.64 | 0.64 | 90 | 983.6 |
| 20260504014547 | 43 | 252 | 5.2 | 20.0 | 0.02 | 0.64 | 0.64 | 91 | 984.1 |
| 20260504013044 | 42 | 180 | 5.2 | 16.5 | 0.03 | 0.64 | 0.64 | 91 | 984.3 |
| 20260504011543 | 41 | 98 | 5.2 | 14.8 | 0.04 | 0.64 | 0.64 | 91 | 984.8 |
| 20260504010040 | 41 | 135 | 7.0 | 15.6 | 0.04 | 0.62 | 0.62 | 90 | 985.3 |
| 20260504004545 | 40 | 126 | 8.7 | 16.5 | 0.06 | 0.61 | 0.61 | 90 | 986.2 |
| 20260504003040 | 40 | 103 | 11.3 | 22.6 | 0.09 | 0.61 | 0.61 | 91 | 986.8 |
| 20260504001540 | 39 | 100 | 7.0 | 20.0 | 0.13 | 0.60 | 0.60 | 90 | 987.9 |
| 20260504000051 | 40 | 65 | 6.1 | 14.8 | 0.19 | 0.56 | 0.56 | 91 | 988.5 |
| 20260503234528 | 39 | 23 | 4.3 | 18.2 | 0.23 | 0.56 | 0.56 | 90 | 989.1 |
| 20260503233025 | 39 | 92 | 6.1 | 13.0 | 0.20 | 0.51 | 0.51 | 91 | 990.0 |
| 20260503231521 | 39 | 75 | 10.4 | 20.0 | 0.17 | 0.46 | 0.46 | 91 | 991.4 |
| 20260503230022 | 39 | 119 | 5.2 | 13.9 | 0.13 | 0.39 | 0.39 | 91 | 992.4 |
| 20260503224515 | 39 | 104 | 7.0 | 12.2 | 0.11 | 0.33 | 0.33 | 90 | 993.6 |
| 20260503223010 | 39 | 77 | 5.2 | 15.6 | 0.13 | 0.31 | 0.31 | 90 | 994.3 |
| 20260503221508 | 38 | 66 | 6.1 | 14.8 | 0.17 | 0.28 | 0.28 | 90 | 995.1 |
| 20260503220005 | 38 | 90 | 5.2 | 11.3 | 0.19 | 0.26 | 0.26 | 90 | 995.7 |
| 20260503214503 | 38 | 100 | 7.0 | 13.0 | 0.18 | 0.22 | 0.22 | 90 | 995.9 |
| 20260503213003 | 37 | 94 | 6.1 | 16.5 | 0.13 | 0.17 | 0.17 | 90 | 996.3 |
| 20260503211620 | 37 | 103 | 7.8 | 15.6 | 0.08 | 0.11 | 0.11 | 90 | 996.9 |
| 20260503211501 | 37 | 92 | 7.0 | 15.6 | 0.08 | 0.11 | 0.11 | 90 | 996.9 |
| 20260503210058 | 37 | 99 | 6.1 | 15.6 | 0.05 | 0.07 | 0.07 | 90 | 997.4 |
| 20260503204555 | 37 | 112 | 5.2 | 13.0 | 0.02 | 0.04 | 0.04 | 90 | 998.7 |
| 20260503203106 | 37 | 115 | 4.3 | 13.9 | 0.01 | 0.03 | 0.03 | 89 | 999.3 |
| 20260503201554 | 36 | 157 | 5.2 | 13.9 | 0.01 | 0.03 | 0.03 | 89 | 1000.6 |
| 20260503200048 | 36 | 186 | 4.3 | 14.8 | 0.00 | 0.02 | 0.02 | 89 | 1001.6 |
| 20260503194552 | 36 | 68 | 5.2 | 13.0 | 0.00 | 0.02 | 0.02 | 88 | 1002.0 |
| 20260503193047 | 37 | 87 | 6.1 | 13.0 | 0.02 | 0.02 | 0.02 | 87 | 1002.0 |
| 20260503191542 | 38 | 60 | 4.3 | 9.6 | 0.02 | 0.02 | 0.02 | 86 | 1002.5 |
| 20260503190040 | 39 | 52 | 3.5 | 9.6 | 0.02 | 0.02 | 0.02 | 86 | 1004.0 |
| 20260503184536 | 40 | 38 | 3.5 | 8.7 | 0.02 | 0.02 | 0.02 | 85 | 1004.3 |
| 20260503183033 | 41 | 101 | 3.5 | 10.4 | 0.01 | 0.01 | 0.01 | 83 | 1005.8 |
| 20260503181531 | 41 | 25 | 3.5 | 7.8 | 0.00 | 0.00 | 0.00 | 81 | 1005.8 |
| 20260503180031 | 42 | 62 | 3.5 | 8.7 | 0.00 | 0.00 | 0.00 | 78 | 1006.6 |
| 20260503174525 | 42 | 115 | 3.5 | 8.7 | 0.00 | 0.00 | 0.00 | 76 | 1007.7 |
| 20260503173039 | 43 | 127 | 1.7 | 7.0 | 0.00 | 0.00 | 0.00 | 77 | 1008.0 |
| 20260503171533 | 43 | 97 | 2.6 | 6.1 | 0.00 | 0.00 | 0.00 | 76 | 1008.8 |